• In Deutschland
  • Länderverzeichnis
  • Für 7 Tage
  • Wassertemperatur
  • Satellitenkarten
  • Wetterkarte
  • Widgets
  • user-avatar
    Anmelden

    Stündliche Wetter Barra

    Heute, 24 November, Freitag

    Zeit Temperatur Niederschläge Wind Luftdruck Luftfeuchtigkeit
    00:00 +24°C° 0,1 mm 2 m/S 747 mmHg 91%
    01:00 +24°C° 0,1 mm 2 m/S 747 mmHg 92%
    02:00 +24°C° 0,4 mm 2 m/S 747 mmHg 93%
    03:00 +24°C° 0,4 mm 2 m/S 747 mmHg 94%
    04:00 +23°C° 0 mm 2 m/S 747 mmHg 96%
    05:00 +24°C° 0,1 mm 2 m/S 747 mmHg 92%
    06:00 +25°C° 0,1 mm 2 m/S 747 mmHg 89%
    07:00 +25°C° 0,1 mm 2 m/S 748 mmHg 86%
    08:00 +27°C° 0,1 mm 2 m/S 748 mmHg 77%
    09:00 +29°C° 0,1 mm 3 m/S 748 mmHg 67%
    10:00 +31°C° 0 mm 3 m/S 748 mmHg 59%
    11:00 +33°C° 0,1 mm 3 m/S 748 mmHg 57%
    12:00 +33°C° 0,1 mm 3 m/S 747 mmHg 55%
    13:00 +34°C° 0,1 mm 4 m/S 747 mmHg 54%
    14:00 +33°C° 0,1 mm 3 m/S 747 mmHg 56%
    15:00 +33°C° 0,1 mm 3 m/S 746 mmHg 58%
    16:00 +31°C° 0 mm 3 m/S 746 mmHg 60%
    17:00 +29°C° 0 mm 3 m/S 746 mmHg 67%
    18:00 +28°C° 0 mm 2 m/S 746 mmHg 74%
    19:00 +26°C° 0 mm 2 m/S 747 mmHg 81%
    20:00 +26°C° 0 mm 2 m/S 747 mmHg 84%
    21:00 +25°C° 0 mm 2 m/S 747 mmHg 87%
    22:00 +25°C° 0 mm 2 m/S 748 mmHg 89%
    23:00 +25°C° 0 mm 2 m/S 748 mmHg 91%

    Morgen, 25 November, Samstag

    Zeit Temperatur Niederschläge Wind Luftdruck Luftfeuchtigkeit
    00:00 +24°C° 0 mm 2 m/S 748 mmHg 92%
    01:00 +24°C° 0 mm 2 m/S 748 mmHg 93%
    02:00 +24°C° 0,1 mm 2 m/S 748 mmHg 93%
    03:00 +24°C° 0,1 mm 2 m/S 747 mmHg 93%
    04:00 +24°C° 0,1 mm 2 m/S 747 mmHg 93%
    05:00 +25°C° 0 mm 2 m/S 748 mmHg 90%
    06:00 +26°C° 0 mm 2 m/S 748 mmHg 87%
    07:00 +26°C° 0 mm 2 m/S 748 mmHg 85%
    08:00 +28°C° 0 mm 3 m/S 748 mmHg 76%
    09:00 +30°C° 0 mm 3 m/S 748 mmHg 66%
    10:00 +31°C° 0 mm 3 m/S 748 mmHg 57%
    11:00 +33°C° 0 mm 3 m/S 748 mmHg 54%
    12:00 +34°C° 0 mm 3 m/S 747 mmHg 50%
    13:00 +35°C° 0 mm 4 m/S 747 mmHg 46%
    14:00 +34°C° 0 mm 3 m/S 746 mmHg 47%
    15:00 +34°C° 0 mm 3 m/S 746 mmHg 48%
    16:00 +33°C° 0 mm 3 m/S 746 mmHg 48%
    17:00 +30°C° 0 mm 2 m/S 746 mmHg 57%
    18:00 +28°C° 0 mm 2 m/S 746 mmHg 66%
    19:00 +26°C° 0 mm 1 m/S 746 mmHg 74%
    20:00 +26°C° 0 mm 1 m/S 747 mmHg 78%
    21:00 +25°C° 0 mm 1 m/S 747 mmHg 82%
    22:00 +25°C° 0 mm 1 m/S 748 mmHg 86%
    23:00 +24°C° 0 mm 2 m/S 748 mmHg 88%

    übermorgen, 26 November, Sonntag

    Zeit Temperatur Niederschläge Wind Luftdruck Luftfeuchtigkeit
    00:00 +24°C° 0 mm 2 m/S 747 mmHg 90%
    01:00 +24°C° 0 mm 2 m/S 747 mmHg 92%
    02:00 +24°C° 0 mm 2 m/S 747 mmHg 93%
    03:00 +24°C° 0 mm 2 m/S 746 mmHg 93%
    04:00 +24°C° 0 mm 2 m/S 746 mmHg 94%
    05:00 +24°C° 0 mm 2 m/S 747 mmHg 90%
    06:00 +25°C° 0 mm 2 m/S 747 mmHg 85%
    07:00 +26°C° 0 mm 2 m/S 747 mmHg 81%
    08:00 +28°C° 0 mm 3 m/S 748 mmHg 71%
    09:00 +30°C° 0 mm 3 m/S 748 mmHg 61%
    10:00 +33°C° 0 mm 3 m/S 748 mmHg 51%
    11:00 +34°C° 0 mm 3 m/S 747 mmHg 47%
    12:00 +35°C° 0 mm 4 m/S 747 mmHg 43%
    13:00 +36°C° 0 mm 4 m/S 746 mmHg 39%
    14:00 +35°C° 0 mm 4 m/S 746 mmHg 41%
    15:00 +34°C° 0 mm 4 m/S 745 mmHg 43%
    16:00 +34°C° 0 mm 3 m/S 744 mmHg 45%
    17:00 +31°C° 0 mm 3 m/S 745 mmHg 55%
    18:00 +29°C° 0 mm 2 m/S 745 mmHg 64%
    19:00 +27°C° 0 mm 2 m/S 746 mmHg 73%
    20:00 +26°C° 0 mm 2 m/S 746 mmHg 78%
    21:00 +25°C° 0 mm 2 m/S 747 mmHg 82%
    22:00 +25°C° 0 mm 2 m/S 747 mmHg 87%
    23:00 +25°C° 0 mm 2 m/S 747 mmHg 89%

    27 November, Montag

    Zeit Temperatur Niederschläge Wind Luftdruck Luftfeuchtigkeit
    00:00 +24°C° 0 mm 2 m/S 746 mmHg 90%
    01:00 +24°C° 0 mm 2 m/S 746 mmHg 92%
    02:00 +24°C° 0 mm 2 m/S 746 mmHg 93%
    03:00 +24°C° 0 mm 2 m/S 745 mmHg 93%
    04:00 +24°C° 0 mm 2 m/S 745 mmHg 93%
    05:00 +25°C° 0 mm 2 m/S 745 mmHg 89%
    06:00 +25°C° 0 mm 2 m/S 746 mmHg 85%
    07:00 +26°C° 0 mm 2 m/S 746 mmHg 81%
    08:00 +28°C° 0 mm 3 m/S 746 mmHg 72%
    09:00 +30°C° 0 mm 3 m/S 747 mmHg 62%
    10:00 +33°C° 0 mm 3 m/S 747 mmHg 52%
    11:00 +33°C° 0 mm 4 m/S 746 mmHg 49%
    12:00 +34°C° 0 mm 4 m/S 746 mmHg 46%
    13:00 +35°C° 0 mm 4 m/S 745 mmHg 43%
    14:00 +34°C° 0 mm 4 m/S 745 mmHg 45%
    15:00 +33°C° 0 mm 4 m/S 744 mmHg 46%
    16:00 +33°C° 0 mm 4 m/S 744 mmHg 48%
    17:00 +30°C° 0 mm 3 m/S 744 mmHg 57%
    18:00 +28°C° 0 mm 3 m/S 745 mmHg 66%
    19:00 +26°C° 0 mm 2 m/S 745 mmHg 76%
    20:00 +26°C° 0 mm 2 m/S 746 mmHg 80%
    21:00 +25°C° 0 mm 2 m/S 746 mmHg 84%
    22:00 +25°C° 0 mm 2 m/S 747 mmHg 88%
    23:00 +25°C° 0,1 mm 2 m/S 746 mmHg 89%

    28 November, Dienstag

    Zeit Temperatur Niederschläge Wind Luftdruck Luftfeuchtigkeit
    00:00 +25°C° 0,1 mm 2 m/S 746 mmHg 90%
    01:00 +25°C° 0,1 mm 2 m/S 745 mmHg 92%
    02:00 +24°C° 0,1 mm 2 m/S 745 mmHg 92%
    03:00 +24°C° 0,1 mm 2 m/S 745 mmHg 93%
    04:00 +24°C° 0,1 mm 2 m/S 745 mmHg 94%
    05:00 +25°C° 0,1 mm 3 m/S 746 mmHg 91%
    06:00 +25°C° 0,1 mm 3 m/S 746 mmHg 88%
    07:00 +26°C° 0,1 mm 3 m/S 747 mmHg 84%
    08:00 +27°C° 0,3 mm 3 m/S 747 mmHg 76%
    09:00 +29°C° 0,3 mm 3 m/S 747 mmHg 68%
    10:00 +31°C° 0,3 mm 3 m/S 747 mmHg 60%
    11:00 +31°C° 0,3 mm 3 m/S 746 mmHg 57%
    12:00 +33°C° 0,3 mm 3 m/S 746 mmHg 54%
    13:00 +33°C° 0,3 mm 3 m/S 745 mmHg 52%
    14:00 +33°C° 0,2 mm 3 m/S 745 mmHg 54%
    15:00 +31°C° 0,2 mm 3 m/S 745 mmHg 56%
    16:00 +31°C° 0,2 mm 3 m/S 745 mmHg 59%
    17:00 +29°C° 0,1 mm 3 m/S 746 mmHg 66%
    18:00 +28°C° 0,1 mm 3 m/S 746 mmHg 73%
    19:00 +26°C° 0,1 mm 2 m/S 747 mmHg 80%
    20:00 +26°C° 0,1 mm 2 m/S 747 mmHg 84%
    21:00 +25°C° 0,1 mm 2 m/S 747 mmHg 88%
    22:00 +25°C° 0,1 mm 2 m/S 748 mmHg 92%
    23:00 +25°C° 0,3 mm 2 m/S 747 mmHg 93%

    29 November, Mittwoch

    Zeit Temperatur Niederschläge Wind Luftdruck Luftfeuchtigkeit
    00:00 +24°C° 0,3 mm 2 m/S 747 mmHg 94%
    01:00 +24°C° 0,3 mm 2 m/S 746 mmHg 95%
    02:00 +24°C° 0,3 mm 2 m/S 746 mmHg 95%
    03:00 +24°C° 0,3 mm 2 m/S 746 mmHg 95%
    04:00 +24°C° 0,3 mm 2 m/S 746 mmHg 95%
    05:00 +25°C° 0,3 mm 2 m/S 747 mmHg 92%
    06:00 +26°C° 0,3 mm 2 m/S 747 mmHg 88%
    07:00 +26°C° 0,3 mm 2 m/S 748 mmHg 85%
    08:00 +28°C° 0,6 mm 3 m/S 748 mmHg 76%
    09:00 +30°C° 0,6 mm 3 m/S 748 mmHg 67%
    10:00 +33°C° 0,6 mm 3 m/S 748 mmHg 58%
    11:00 +33°C° 0,2 mm 3 m/S 747 mmHg 55%
    12:00 +34°C° 0,2 mm 3 m/S 746 mmHg 53%
    13:00 +34°C° 0,2 mm 3 m/S 746 mmHg 51%
    14:00 +34°C° 0,1 mm 3 m/S 746 mmHg 53%
    15:00 +33°C° 0,1 mm 4 m/S 745 mmHg 56%
    16:00 +33°C° 0,1 mm 4 m/S 745 mmHg 59%
    17:00 +30°C° 0 mm 3 m/S 746 mmHg 67%
    18:00 +28°C° 0 mm 3 m/S 746 mmHg 75%
    19:00 +27°C° 0 mm 3 m/S 747 mmHg 83%
    20:00 +26°C° 0,2 mm 3 m/S 747 mmHg 86%
    21:00 +26°C° 0,2 mm 2 m/S 747 mmHg 89%
    22:00 +26°C° 0,2 mm 2 m/S 748 mmHg 91%
    23:00 +26°C° 0,2 mm 2 m/S 747 mmHg 92%
    Mehr zeigen